Location: Newark
(42.8481°N, 0.4872°E)
Time: 16:51:35
(UTC+00:00)

A-11 Canister half - Pass Details

Date: 03 November 2020
Orbit: 1525 x 1683 km, 47.3° (Epoch: 22 November)

Event Time Altitude Azimuth Distance (km) Brightness Sun altitude
Rises 14:06:46 0° 255° (WSW) 4,814 12.4 23.0°
Reaches altitude 10° 14:09:55 10° 257° (WSW) 3,808 12.0 22.6°
Maximum altitude 14:19:35 78° 343° (NNW) 1,594 9.4 21.5°
Drops below altitude 10° 14:29:00 10° 71° (ENE) 3,709 10.6 20.3°
Sets 14:32:02 0° 73° (ENE) 4,684 11.0 19.9°
